Time,TemperatureF,DewpointF,PressureIn,WindDirection,WindDirectionDegrees,WindSpeedMPH,WindSpeedGustMPH,Humidity,HourlyPrecipIn,Conditions,Clouds,dailyrainin,SoftwareType,DateUTC
2013-03-20 00:03:00,55.0,18.0,-100.00,NNW,330,6.0,10.0,23,-99.99,,,-99.99,,2013-03-20 04:03:00,
2013-03-20 00:12:00,55.0,18.0,-100.00,North,350,6.0,10.0,23,-99.99,,,-99.99,,2013-03-20 04:12:00,
2013-03-20 00:23:00,55.0,18.0,-100.00,North,0,7.0,10.0,23,-99.99,,,-99.99,,2013-03-20 04:23:00,
2013-03-20 00:32:00,54.0,18.0,-100.00,North,355,8.0,11.0,24,-99.99,,,-99.99,,2013-03-20 04:32:00,
2013-03-20 00:43:00,54.0,18.0,-100.00,North,355,7.0,10.0,24,-99.99,,,-99.99,,2013-03-20 04:43:00,
2013-03-20 00:52:00,54.0,18.0,-100.00,North,355,6.0,11.0,24,-99.99,,,-99.99,,2013-03-20 04:52:00,
2013-03-20 01:03:00,54.0,19.0,-100.00,North,0,6.0,10.0,25,-99.99,,,-99.99,,2013-03-20 05:03:00,
2013-03-20 01:13:00,54.0,19.0,-100.00,North,350,5.0,8.0,25,-99.99,,,-99.99,,2013-03-20 05:13:00,
2013-03-20 01:23:00,54.0,19.0,-100.00,North,5,5.0,9.0,25,-99.99,,,-99.99,,2013-03-20 05:23:00,
2013-03-20 01:32:00,54.0,19.0,-100.00,North,0,5.0,9.0,25,-99.99,,,-99.99,,2013-03-20 05:32:00,
2013-03-20 01:42:00,53.0,18.0,-100.00,North,355,4.0,7.0,25,-99.99,,,-99.99,,2013-03-20 05:42:00,
2013-03-20 01:52:00,53.0,18.0,-100.00,NNE,15,6.0,8.0,25,-99.99,,,-99.99,,2013-03-20 05:52:00,
2013-03-20 02:03:00,53.0,19.0,-100.00,North,5,5.0,9.0,26,-99.99,,,-99.99,,2013-03-20 06:03:00,
2013-03-20 02:13:00,53.0,19.0,-100.00,NNE,15,5.0,8.0,26,-99.99,,,-99.99,,2013-03-20 06:13:00,
2013-03-20 02:22:00,53.0,19.0,-100.00,NNE,25,6.0,11.0,26,-99.99,,,-99.99,,2013-03-20 06:22:00,
2013-03-20 02:32:00,53.0,19.0,-100.00,NNE,25,6.0,11.0,26,-99.99,,,-99.99,,2013-03-20 06:32:00,
2013-03-20 02:43:00,53.0,19.0,-100.00,NE,40,7.0,10.0,26,-99.99,,,-99.99,,2013-03-20 06:43:00,
2013-03-20 02:52:00,52.0,17.0,-100.00,NE,40,6.0,11.0,25,-99.99,,,-99.99,,2013-03-20 06:52:00,
2013-03-20 03:02:00,52.0,17.0,-100.00,NE,45,6.0,9.0,25,-99.99,,,-99.99,,2013-03-20 07:02:00,
2013-03-20 03:12:00,51.0,17.0,-100.00,NE,50,6.0,10.0,25,-99.99,,,-99.99,,2013-03-20 07:12:00,
2013-03-20 03:22:00,51.0,16.0,-100.00,NE,40,5.0,9.0,25,-99.99,,,-99.99,,2013-03-20 07:22:00,
2013-03-20 03:32:00,50.0,17.0,-100.00,NE,50,5.0,7.0,26,-99.99,,,-99.99,,2013-03-20 07:32:00,
2013-03-20 03:42:00,50.0,17.0,-100.00,NE,35,4.0,6.0,27,-99.99,,,-99.99,,2013-03-20 07:42:00,
2013-03-20 03:52:00,50.0,17.0,-100.00,NNE,30,6.0,10.0,27,-99.99,,,-99.99,,2013-03-20 07:52:00,
2013-03-20 04:02:00,49.0,17.0,-100.00,NNE,25,4.0,11.0,27,-99.99,,,-99.99,,2013-03-20 08:02:00,
2013-03-20 04:13:00,49.0,17.0,-100.00,NNE,30,6.0,10.0,27,-99.99,,,-99.99,,2013-03-20 08:13:00,
2013-03-20 04:22:00,49.0,16.0,-100.00,NE,45,8.0,12.0,26,-99.99,,,-99.99,,2013-03-20 08:22:00,
2013-03-20 04:32:00,49.0,16.0,-100.00,NE,35,9.0,14.0,26,-99.99,,,-99.99,,2013-03-20 08:32:00,
2013-03-20 04:42:00,49.0,15.0,-100.00,NNE,30,7.0,12.0,26,-99.99,,,-99.99,,2013-03-20 08:42:00,
2013-03-20 04:52:00,49.0,14.0,-100.00,NE,45,6.0,11.0,25,-99.99,,,-99.99,,2013-03-20 08:52:00,
2013-03-20 05:02:00,48.0,14.0,-100.00,NE,40,6.0,11.0,25,-99.99,,,-99.99,,2013-03-20 09:02:00,
2013-03-20 05:12:00,48.0,14.0,-100.00,NE,40,7.0,11.0,25,-99.99,,,-99.99,,2013-03-20 09:12:00,
2013-03-20 05:22:00,48.0,14.0,-100.00,NE,40,9.0,13.0,25,-99.99,,,-99.99,,2013-03-20 09:22:00,
2013-03-20 05:33:00,48.0,12.0,-100.00,NNE,30,10.0,15.0,23,-99.99,,,-99.99,,2013-03-20 09:33:00,
2013-03-20 05:43:00,48.0,12.0,-100.00,NNE,30,8.0,15.0,23,-99.99,,,-99.99,,2013-03-20 09:43:00,
2013-03-20 05:52:00,48.0,12.0,-100.00,NNE,30,8.0,14.0,23,-99.99,,,-99.99,,2013-03-20 09:52:00,
2013-03-20 06:03:00,48.0,12.0,-100.00,NE,35,6.0,14.0,23,-99.99,,,-99.99,,2013-03-20 10:03:00,
2013-03-20 06:13:00,47.0,12.0,-100.00,NE,40,6.0,11.0,23,-99.99,,,-99.99,,2013-03-20 10:13:00,
2013-03-20 06:23:00,47.0,11.0,-100.00,NNE,25,5.0,9.0,23,-99.99,,,-99.99,,2013-03-20 10:23:00,
2013-03-20 06:33:00,47.0,12.0,-100.00,NE,35,8.0,11.0,23,-99.99,,,-99.99,,2013-03-20 10:33:00,
2013-03-20 06:43:00,48.0,12.0,-100.00,NNE,15,6.0,13.0,23,-99.99,,,-99.99,,2013-03-20 10:43:00,
2013-03-20 06:52:00,48.0,12.0,-100.00,NNE,15,6.0,13.0,23,-99.99,,,-99.99,,2013-03-20 10:52:00,
2013-03-20 07:03:00,48.0,12.0,-100.00,NE,40,5.0,10.0,23,-99.99,,,-99.99,,2013-03-20 11:03:00,
2013-03-20 07:12:00,47.0,12.0,-100.00,NE,40,6.0,10.0,23,-99.99,,,-99.99,,2013-03-20 11:12:00,
2013-03-20 07:22:00,47.0,11.0,-100.00,NE,45,6.0,8.0,23,-99.99,,,-99.99,,2013-03-20 11:22:00,
2013-03-20 07:32:00,47.0,11.0,-100.00,NNE,30,4.0,10.0,23,-99.99,,,-99.99,,2013-03-20 11:32:00,
2013-03-20 07:42:00,47.0,11.0,-100.00,NNE,30,6.0,9.0,23,-99.99,,,-99.99,,2013-03-20 11:42:00,
2013-03-20 07:52:00,47.0,11.0,-100.00,NNE,30,6.0,9.0,23,-99.99,,,-99.99,,2013-03-20 11:52:00,
2013-03-20 08:02:00,47.0,11.0,-100.00,NE,50,2.0,6.0,23,-99.99,,,-99.99,,2013-03-20 12:02:00,
2013-03-20 08:13:00,46.0,11.0,-100.00,North,0,0.0,4.0,23,-99.99,,,-99.99,,2013-03-20 12:13:00,
2013-03-20 08:22:00,47.0,11.0,-100.00,NE,40,1.0,4.0,23,-99.99,,,-99.99,,2013-03-20 12:22:00,
2013-03-20 08:33:00,47.0,11.0,-100.00,NE,50,3.0,4.0,23,-99.99,,,-99.99,,2013-03-20 12:33:00,
2013-03-20 08:42:00,47.0,11.0,-100.00,NE,35,4.0,7.0,23,-99.99,,,-99.99,,2013-03-20 12:42:00,
2013-03-20 08:52:00,48.0,12.0,-100.00,NE,40,3.0,5.0,23,-99.99,,,-99.99,,2013-03-20 12:52:00,
2013-03-20 09:03:00,48.0,12.0,-100.00,East,80,3.0,6.0,23,-99.99,,,-99.99,,2013-03-20 13:03:00,
2013-03-20 09:12:00,48.0,12.0,-100.00,NE,40,1.0,6.0,23,-99.99,,,-99.99,,2013-03-20 13:12:00,
2013-03-20 09:22:00,49.0,12.0,-100.00,NE,45,4.0,7.0,23,-99.99,,,-99.99,,2013-03-20 13:22:00,
2013-03-20 09:32:00,49.0,13.0,-100.00,NNE,30,4.0,10.0,23,-99.99,,,-99.99,,2013-03-20 13:32:00,
2013-03-20 09:42:00,49.0,13.0,-100.00,NE,40,1.0,8.0,23,-99.99,,,-99.99,,2013-03-20 13:42:00,
2013-03-20 09:52:00,50.0,13.0,-100.00,NE,55,8.0,11.0,22,-99.99,,,-99.99,,2013-03-20 13:52:00,
2013-03-20 10:03:00,50.0,13.0,-100.00,ENE,70,5.0,12.0,22,-99.99,,,-99.99,,2013-03-20 14:03:00,
2013-03-20 10:12:00,49.0,13.0,-100.00,ENE,75,6.0,11.0,23,-99.99,,,-99.99,,2013-03-20 14:12:00,
2013-03-20 10:23:00,50.0,14.0,-100.00,ESE,105,4.0,9.0,23,-99.99,,,-99.99,,2013-03-20 14:23:00,
2013-03-20 10:34:00,50.0,14.0,-100.00,ENE,65,5.0,10.0,23,-99.99,,,-99.99,,2013-03-20 14:34:00,
2013-03-20 10:42:00,52.0,15.0,-100.00,East,90,2.0,10.0,23,-99.99,,,-99.99,,2013-03-20 14:42:00,
2013-03-20 10:52:00,52.0,15.0,-100.00,East,85,6.0,11.0,23,-99.99,,,-99.99,,2013-03-20 14:52:00,
2013-03-20 11:03:00,53.0,15.0,-100.00,ENE,75,6.0,11.0,22,-99.99,,,-99.99,,2013-03-20 15:03:00,
2013-03-20 11:12:00,54.0,15.0,-100.00,ENE,75,5.0,9.0,21,-99.99,,,-99.99,,2013-03-20 15:12:00,
2013-03-20 11:22:00,54.0,14.0,-100.00,ESE,110,6.0,11.0,20,-99.99,,,-99.99,,2013-03-20 15:22:00,
2013-03-20 11:33:00,54.0,14.0,-100.00,ESE,115,4.0,9.0,20,-99.99,,,-99.99,,2013-03-20 15:33:00,
2013-03-20 11:43:00,54.0,13.0,-100.00,ENE,70,7.0,10.0,19,-99.99,,,-99.99,,2013-03-20 15:43:00,
2013-03-20 11:52:00,55.0,13.0,-100.00,ENE,60,5.0,11.0,19,-99.99,,,-99.99,,2013-03-20 15:52:00,
2013-03-20 12:03:00,54.0,13.0,-100.00,ENE,65,1.0,10.0,19,-99.99,,,-99.99,,2013-03-20 16:03:00,
2013-03-20 12:13:00,56.0,14.0,-100.00,NE,55,1.0,5.0,19,-99.99,,,-99.99,,2013-03-20 16:13:00,
2013-03-20 12:23:00,55.0,14.0,-100.00,SE,135,6.0,9.0,19,-99.99,,,-99.99,,2013-03-20 16:23:00,
2013-03-20 12:33:00,56.0,14.0,-100.00,ESE,115,2.0,9.0,18,-99.99,,,-99.99,,2013-03-20 16:33:00,
2013-03-20 12:43:00,57.0,14.0,-100.00,WNW,295,1.0,6.0,18,-99.99,,,-99.99,,2013-03-20 16:43:00,
2013-03-20 12:52:00,57.0,14.0,-100.00,NNE,30,4.0,7.0,18,-99.99,,,-99.99,,2013-03-20 16:52:00,
2013-03-20 13:03:00,58.0,14.0,-100.00,ENE,75,1.0,8.0,17,-99.99,,,-99.99,,2013-03-20 17:03:00,
2013-03-20 13:12:00,59.0,14.0,-100.00,NW,325,1.0,4.0,17,-99.99,,,-99.99,,2013-03-20 17:12:00,
2013-03-20 13:22:00,59.0,14.0,-100.00,NNW,340,2.0,4.0,17,-99.99,,,-99.99,,2013-03-20 17:22:00,
2013-03-20 13:32:00,59.0,14.0,-100.00,ENE,70,1.0,4.0,17,-99.99,,,-99.99,,2013-03-20 17:32:00,
2013-03-20 13:42:00,58.0,13.0,-100.00,SW,230,2.0,6.0,17,-99.99,,,-99.99,,2013-03-20 17:42:00,
2013-03-20 13:52:00,58.0,14.0,-100.00,NW,310,0.0,3.0,17,-99.99,,,-99.99,,2013-03-20 17:52:00,
2013-03-20 14:02:00,59.0,15.0,-100.00,NNW,345,1.0,5.0,17,-99.99,,,-99.99,,2013-03-20 18:02:00,
2013-03-20 14:12:00,60.0,15.0,-100.00,NNW,330,0.0,5.0,17,-99.99,,,-99.99,,2013-03-20 18:12:00,
2013-03-20 14:22:00,62.0,17.0,-100.00,ESE,115,1.0,6.0,17,-99.99,,,-99.99,,2013-03-20 18:22:00,
2013-03-20 14:34:00,61.0,14.0,-100.00,North,350,4.0,6.0,16,-99.99,,,-99.99,,2013-03-20 18:34:00,
2013-03-20 14:43:00,62.0,15.0,-100.00,West,280,1.0,6.0,16,-99.99,,,-99.99,,2013-03-20 18:43:00,
2013-03-20 14:52:00,62.0,15.0,-100.00,SSE,165,0.0,4.0,16,-99.99,,,-99.99,,2013-03-20 18:52:00,
2013-03-20 15:02:00,60.0,14.0,-100.00,NNW,330,7.0,11.0,16,-99.99,,,-99.99,,2013-03-20 19:02:00,
2013-03-20 15:12:00,61.0,14.0,-100.00,NNE,30,5.0,9.0,16,-99.99,,,-99.99,,2013-03-20 19:12:00,
2013-03-20 15:23:00,61.0,14.0,-100.00,NNW,330,8.0,11.0,16,-99.99,,,-99.99,,2013-03-20 19:23:00,
2013-03-20 15:32:00,62.0,16.0,-100.00,North,10,4.0,8.0,16,-99.99,,,-99.99,,2013-03-20 19:32:00,
2013-03-20 15:42:00,64.0,17.0,-100.00,WNW,295,5.0,9.0,16,-99.99,,,-99.99,,2013-03-20 19:42:00,
2013-03-20 15:52:00,64.0,15.0,-100.00,West,275,6.0,11.0,15,-99.99,,,-99.99,,2013-03-20 19:52:00,
2013-03-20 16:02:00,63.0,14.0,-100.00,NW,310,3.0,11.0,15,-99.99,,,-99.99,,2013-03-20 20:02:00,
2013-03-20 16:13:00,63.0,14.0,-100.00,WNW,300,5.0,8.0,15,-99.99,,,-99.99,,2013-03-20 20:13:00,
2013-03-20 16:22:00,62.0,15.0,-100.00,NW,315,4.0,9.0,16,-99.99,,,-99.99,,2013-03-20 20:22:00,
2013-03-20 16:32:00,62.0,15.0,-100.00,NW,315,4.0,9.0,16,-99.99,,,-99.99,,2013-03-20 20:32:00,
2013-03-20 16:42:00,63.0,16.0,-100.00,WSW,245,6.0,10.0,16,-99.99,,,-99.99,,2013-03-20 20:42:00,
2013-03-20 16:52:00,63.0,16.0,-100.00,West,260,6.0,8.0,16,-99.99,,,-99.99,,2013-03-20 20:52:00,
2013-03-20 17:02:00,61.0,15.0,-100.00,SW,220,4.0,11.0,16,-99.99,,,-99.99,,2013-03-20 21:02:00,
2013-03-20 17:12:00,62.0,16.0,-100.00,West,260,5.0,9.0,16,-99.99,,,-99.99,,2013-03-20 21:12:00,
2013-03-20 17:22:00,62.0,15.0,-100.00,West,265,6.0,11.0,16,-99.99,,,-99.99,,2013-03-20 21:22:00,
2013-03-20 17:33:00,61.0,14.0,-100.00,SW,235,10.0,13.0,16,-99.99,,,-99.99,,2013-03-20 21:33:00,
2013-03-20 17:42:00,62.0,15.0,-100.00,WSW,255,4.0,10.0,16,-99.99,,,-99.99,,2013-03-20 21:42:00,
2013-03-20 17:52:00,62.0,16.0,-100.00,WNW,295,8.0,11.0,17,-99.99,,,-99.99,,2013-03-20 21:52:00,
2013-03-20 18:03:00,61.0,16.0,-100.00,West,280,6.0,14.0,17,-99.99,,,-99.99,,2013-03-20 22:03:00,
2013-03-20 18:13:00,62.0,16.0,-100.00,West,280,7.0,14.0,17,-99.99,,,-99.99,,2013-03-20 22:13:00,
2013-03-20 18:23:00,61.0,16.0,-100.00,West,280,7.0,16.0,17,-99.99,,,-99.99,,2013-03-20 22:23:00,
2013-03-20 18:33:00,61.0,16.0,-100.00,West,280,12.0,16.0,17,-99.99,,,-99.99,,2013-03-20 22:33:00,
2013-03-20 18:42:00,61.0,16.0,-100.00,WNW,300,7.0,14.0,17,-99.99,,,-99.99,,2013-03-20 22:42:00,
2013-03-20 18:52:00,62.0,16.0,-100.00,West,270,6.0,12.0,17,-99.99,,,-99.99,,2013-03-20 22:52:00,
2013-03-20 19:03:00,61.0,16.0,-100.00,West,265,12.0,16.0,17,-99.99,,,-99.99,,2013-03-20 23:03:00,
2013-03-20 19:12:00,60.0,15.0,-100.00,West,270,10.0,15.0,17,-99.99,,,-99.99,,2013-03-20 23:12:00,
2013-03-20 19:23:00,60.0,16.0,-100.00,West,270,6.0,13.0,18,-99.99,,,-99.99,,2013-03-20 23:23:00,
2013-03-20 19:32:00,59.0,16.0,-100.00,West,275,9.0,16.0,18,-99.99,,,-99.99,,2013-03-20 23:32:00,
2013-03-20 19:42:00,59.0,16.0,-100.00,West,280,10.0,20.0,18,-99.99,,,-99.99,,2013-03-20 23:42:00,
2013-03-20 19:52:00,58.0,15.0,-100.00,West,270,10.0,16.0,18,-99.99,,,-99.99,,2013-03-20 23:52:00,
2013-03-20 20:03:00,58.0,16.0,-100.00,WNW,285,11.0,17.0,19,-99.99,,,-99.99,,2013-03-21 00:03:00,
2013-03-20 20:13:00,57.0,15.0,-100.00,West,280,6.0,11.0,19,-99.99,,,-99.99,,2013-03-21 00:13:00,
2013-03-20 20:23:00,56.0,14.0,-100.00,West,275,5.0,9.0,19,-99.99,,,-99.99,,2013-03-21 00:23:00,
2013-03-20 20:33:00,55.0,15.0,-100.00,WNW,285,7.0,14.0,20,-99.99,,,-99.99,,2013-03-21 00:33:00,
2013-03-20 20:42:00,54.0,15.0,-100.00,WNW,285,6.0,9.0,21,-99.99,,,-99.99,,2013-03-21 00:42:00,
2013-03-20 20:52:00,54.0,15.0,-100.00,West,280,6.0,9.0,21,-99.99,,,-99.99,,2013-03-21 00:52:00,
2013-03-20 21:02:00,53.0,14.0,-100.00,West,280,6.0,9.0,21,-99.99,,,-99.99,,2013-03-21 01:02:00,
2013-03-20 21:12:00,53.0,15.0,-100.00,WNW,300,5.0,8.0,22,-99.99,,,-99.99,,2013-03-21 01:12:00,
2013-03-20 21:22:00,53.0,15.0,-100.00,WNW,295,6.0,11.0,22,-99.99,,,-99.99,,2013-03-21 01:22:00,
2013-03-20 21:33:00,52.0,15.0,-100.00,WNW,285,5.0,9.0,22,-99.99,,,-99.99,,2013-03-21 01:33:00,
2013-03-20 21:42:00,52.0,15.0,-100.00,West,275,5.0,9.0,23,-99.99,,,-99.99,,2013-03-21 01:42:00,
2013-03-20 21:50:00,51.0,14.0,-100.00,West,280,5.0,10.0,23,-99.99,,,-99.99,,2013-03-21 01:50:00,
2013-03-20 21:52:00,52.0,15.0,-100.00,WNW,290,4.0,9.0,23,-99.99,,,-99.99,,2013-03-21 01:52:00,
2013-03-20 22:03:00,51.0,15.0,-100.00,West,275,4.0,9.0,23,-99.99,,,-99.99,,2013-03-21 02:03:00,
2013-03-20 22:13:00,51.0,15.0,-100.00,WNW,290,6.0,10.0,23,-99.99,,,-99.99,,2013-03-21 02:13:00,
2013-03-20 22:23:00,51.0,14.0,-100.00,West,280,5.0,10.0,23,-99.99,,,-99.99,,2013-03-21 02:23:00,
2013-03-20 22:33:00,51.0,14.0,-100.00,West,280,5.0,10.0,23,-99.99,,,-99.99,,2013-03-21 02:33:00,
2013-03-20 22:42:00,51.0,14.0,-100.00,West,280,5.0,10.0,23,-99.99,,,-99.99,,2013-03-21 02:42:00,
2013-03-20 23:02:00,49.0,14.0,-100.00,West,270,5.0,6.0,24,-99.99,,,-99.99,,2013-03-21 03:02:00,
2013-03-20 23:12:00,48.0,13.0,-100.00,West,270,4.0,6.0,24,-99.99,,,-99.99,,2013-03-21 03:12:00,
2013-03-20 23:22:00,48.0,14.0,-100.00,West,260,5.0,9.0,25,-99.99,,,-99.99,,2013-03-21 03:22:00,
2013-03-20 23:33:00,48.0,14.0,-100.00,West,265,5.0,9.0,25,-99.99,,,-99.99,,2013-03-21 03:33:00,
2013-03-20 23:43:00,48.0,14.0,-100.00,West,260,6.0,9.0,25,-99.99,,,-99.99,,2013-03-21 03:43:00,
2013-03-20 23:53:00,48.0,14.0,-100.00,West,280,8.0,11.0,25,-99.99,,,-99.99,,2013-03-21 03:53:00,